Time,TemperatureF,DewpointF,PressureIn,WindDirection,WindDirectionDegrees,WindSpeedMPH,WindSpeedGustMPH,Humidity,HourlyPrecipIn,Conditions,Clouds,dailyrainin,SoftwareType,DateUTC
2013-02-06 00:02:00,43.9,35.4,29.93,North,-999,-999.0,-999.0,48,0.00,,,0.00,meteohub,2013-02-06 08:02:00,
2013-02-06 00:07:00,43.7,35.2,29.93,North,-999,-999.0,-999.0,48,0.00,,,0.00,meteohub,2013-02-06 08:07:00,
2013-02-06 00:12:00,43.7,35.2,29.96,North,-999,-999.0,-999.0,48,0.00,,,0.00,meteohub,2013-02-06 08:12:00,
2013-02-06 00:17:00,43.5,35.1,29.96,North,-999,-999.0,-999.0,48,0.00,,,0.00,meteohub,2013-02-06 08:17:00,
2013-02-06 00:22:00,43.5,35.1,29.96,North,-999,-999.0,-999.0,48,0.00,,,0.00,meteohub,2013-02-06 08:22:00,
2013-02-06 00:27:00,43.5,35.1,29.96,North,-999,-999.0,-999.0,48,0.00,,,0.00,meteohub,2013-02-06 08:27:00,
2013-02-06 00:32:00,43.5,35.4,29.96,North,-999,-999.0,-999.0,48,0.00,,,0.00,meteohub,2013-02-06 08:32:00,
2013-02-06 00:37:00,43.3,35.2,29.96,North,-999,-999.0,-999.0,48,0.00,,,0.00,meteohub,2013-02-06 08:37:00,
2013-02-06 00:42:00,43.3,35.2,29.96,North,-999,-999.0,-999.0,48,0.00,,,0.00,meteohub,2013-02-06 08:42:00,
2013-02-06 00:47:00,43.3,35.2,29.96,North,-999,-999.0,-999.0,48,0.00,,,0.00,meteohub,2013-02-06 08:47:00,
2013-02-06 00:52:00,43.3,35.2,29.96,North,-999,-999.0,-999.0,48,0.00,,,0.00,meteohub,2013-02-06 08:52:00,
2013-02-06 00:57:00,43.5,35.8,29.96,North,-999,-999.0,-999.0,48,0.00,,,0.00,meteohub,2013-02-06 08:57:00,
2013-02-06 01:02:00,43.5,35.8,29.96,North,-999,-999.0,-999.0,47,0.00,,,0.00,meteohub,2013-02-06 09:02:00,
2013-02-06 01:07:00,43.5,35.8,29.96,North,-999,-999.0,-999.0,47,0.00,,,0.00,meteohub,2013-02-06 09:07:00,
2013-02-06 01:12:00,43.5,35.8,29.96,North,-999,-999.0,-999.0,47,0.00,,,0.00,meteohub,2013-02-06 09:12:00,
2013-02-06 01:17:00,43.3,35.6,29.96,North,-999,-999.0,-999.0,47,0.00,,,0.00,meteohub,2013-02-06 09:17:00,
2013-02-06 01:22:00,43.3,35.6,29.96,North,-999,-999.0,-999.0,47,0.00,,,0.00,meteohub,2013-02-06 09:22:00,
2013-02-06 01:27:00,43.3,35.6,29.96,North,-999,-999.0,-999.0,47,0.00,,,0.00,meteohub,2013-02-06 09:27:00,
2013-02-06 01:32:00,43.2,35.4,29.96,North,-999,-999.0,-999.0,47,0.00,,,0.00,meteohub,2013-02-06 09:32:00,
2013-02-06 01:37:00,43.2,35.4,29.96,North,-999,-999.0,-999.0,47,0.00,,,0.00,meteohub,2013-02-06 09:37:00,
2013-02-06 01:42:00,43.3,35.6,29.96,North,-999,-999.0,-999.0,47,0.00,,,0.00,meteohub,2013-02-06 09:42:00,
2013-02-06 01:47:00,43.3,35.6,29.96,North,-999,-999.0,-999.0,47,0.00,,,0.00,meteohub,2013-02-06 09:47:00,
2013-02-06 01:52:00,43.2,35.1,29.96,North,-999,-999.0,-999.0,47,0.00,,,0.00,meteohub,2013-02-06 09:52:00,
2013-02-06 01:57:00,42.8,34.3,29.96,North,-999,-999.0,-999.0,47,0.00,,,0.00,meteohub,2013-02-06 09:57:00,
2013-02-06 02:02:00,42.4,34.3,29.96,North,-999,-999.0,-999.0,48,0.00,,,0.00,meteohub,2013-02-06 10:02:00,
2013-02-06 02:07:00,42.4,34.3,29.96,North,-999,-999.0,-999.0,47,0.00,,,0.00,meteohub,2013-02-06 10:07:00,
2013-02-06 02:12:00,42.4,34.7,29.96,North,-999,-999.0,-999.0,47,0.00,,,0.00,meteohub,2013-02-06 10:12:00,
2013-02-06 02:17:00,42.4,34.7,29.96,North,-999,-999.0,-999.0,47,0.00,,,0.00,meteohub,2013-02-06 10:17:00,
2013-02-06 02:22:00,42.4,34.7,29.96,North,-999,-999.0,-999.0,47,0.00,,,0.00,meteohub,2013-02-06 10:22:00,
2013-02-06 02:27:00,42.1,34.3,29.96,North,-999,-999.0,-999.0,47,0.00,,,0.00,meteohub,2013-02-06 10:27:00,
2013-02-06 02:32:00,42.1,34.3,29.96,North,-999,-999.0,-999.0,47,0.00,,,0.00,meteohub,2013-02-06 10:32:00,
2013-02-06 02:37:00,42.3,34.9,29.96,North,-999,-999.0,-999.0,47,0.00,,,0.00,meteohub,2013-02-06 10:37:00,
2013-02-06 02:42:00,42.3,34.9,29.96,North,-999,-999.0,-999.0,47,0.00,,,0.00,meteohub,2013-02-06 10:42:00,
2013-02-06 02:47:00,42.4,35.1,29.96,North,-999,-999.0,-999.0,47,0.00,,,0.00,meteohub,2013-02-06 10:47:00,
2013-02-06 02:52:00,42.4,35.4,29.96,North,-999,-999.0,-999.0,47,0.00,,,0.00,meteohub,2013-02-06 10:52:00,
2013-02-06 02:57:00,42.3,35.2,29.96,North,-999,-999.0,-999.0,47,0.00,,,0.00,meteohub,2013-02-06 10:57:00,
2013-02-06 03:02:00,42.3,35.2,29.96,North,-999,-999.0,-999.0,47,0.00,,,0.00,meteohub,2013-02-06 11:02:00,
2013-02-06 03:07:00,42.3,35.2,29.96,North,-999,-999.0,-999.0,47,0.00,,,0.00,meteohub,2013-02-06 11:07:00,
2013-02-06 03:12:00,42.3,35.2,29.96,North,-999,-999.0,-999.0,47,0.00,,,0.00,meteohub,2013-02-06 11:12:00,
2013-02-06 03:17:00,42.1,35.1,29.96,North,-999,-999.0,-999.0,47,0.00,,,0.00,meteohub,2013-02-06 11:17:00,
2013-02-06 03:22:00,42.3,35.2,29.96,North,-999,-999.0,-999.0,47,0.00,,,0.00,meteohub,2013-02-06 11:22:00,
2013-02-06 03:27:00,42.3,35.2,29.93,North,-999,-999.0,-999.0,47,0.00,,,0.00,meteohub,2013-02-06 11:27:00,
2013-02-06 03:32:00,42.3,35.2,29.93,North,-999,-999.0,-999.0,47,0.00,,,0.00,meteohub,2013-02-06 11:32:00,
2013-02-06 03:37:00,42.3,35.2,29.93,North,-999,-999.0,-999.0,47,0.00,,,0.00,meteohub,2013-02-06 11:37:00,
2013-02-06 03:42:00,42.3,35.2,29.93,North,-999,-999.0,-999.0,47,0.00,,,0.00,meteohub,2013-02-06 11:42:00,
2013-02-06 03:48:00,42.1,35.1,29.93,North,-999,-999.0,-999.0,47,0.00,,,0.00,meteohub,2013-02-06 11:48:00,
2013-02-06 03:53:00,41.9,34.9,29.93,North,-999,-999.0,-999.0,47,0.00,,,0.00,meteohub,2013-02-06 11:53:00,
2013-02-06 03:58:00,41.9,34.9,29.96,North,-999,-999.0,-999.0,47,0.00,,,0.00,meteohub,2013-02-06 11:58:00,
2013-02-06 04:03:00,41.9,34.9,29.96,North,-999,-999.0,-999.0,47,0.00,,,0.00,meteohub,2013-02-06 12:03:00,
2013-02-06 04:08:00,41.9,34.9,29.96,North,-999,-999.0,-999.0,47,0.00,,,0.00,meteohub,2013-02-06 12:08:00,
2013-02-06 04:13:00,41.9,34.9,29.93,North,-999,-999.0,-999.0,47,0.00,,,0.00,meteohub,2013-02-06 12:13:00,
2013-02-06 04:18:00,41.9,35.2,29.93,North,-999,-999.0,-999.0,47,0.00,,,0.00,meteohub,2013-02-06 12:18:00,
2013-02-06 04:23:00,41.9,35.2,29.93,North,-999,-999.0,-999.0,47,0.00,,,0.00,meteohub,2013-02-06 12:23:00,
2013-02-06 04:28:00,41.9,35.2,29.96,North,-999,-999.0,-999.0,47,0.00,,,0.00,meteohub,2013-02-06 12:28:00,
2013-02-06 04:33:00,41.9,35.2,29.96,North,-999,-999.0,-999.0,47,0.00,,,0.00,meteohub,2013-02-06 12:33:00,
2013-02-06 04:39:00,41.9,35.2,29.96,North,-999,-999.0,-999.0,47,0.00,,,0.00,meteohub,2013-02-06 12:39:00,
2013-02-06 04:44:00,41.9,35.2,29.96,North,-999,-999.0,-999.0,47,0.00,,,0.00,meteohub,2013-02-06 12:44:00,
2013-02-06 04:49:00,41.7,35.1,29.96,North,-999,-999.0,-999.0,47,0.00,,,0.00,meteohub,2013-02-06 12:49:00,
2013-02-06 04:54:00,41.9,35.2,29.96,North,-999,-999.0,-999.0,47,0.00,,,0.00,meteohub,2013-02-06 12:54:00,
2013-02-06 04:59:00,42.1,35.8,29.96,North,-999,-999.0,-999.0,47,0.00,,,0.00,meteohub,2013-02-06 12:59:00,
2013-02-06 05:04:00,42.1,35.8,29.96,North,-999,-999.0,-999.0,47,0.00,,,0.00,meteohub,2013-02-06 13:04:00,
2013-02-06 05:09:00,42.1,35.8,29.96,North,-999,-999.0,-999.0,47,0.00,,,0.00,meteohub,2013-02-06 13:09:00,
2013-02-06 05:14:00,41.9,35.6,29.96,North,-999,-999.0,-999.0,47,0.00,,,0.00,meteohub,2013-02-06 13:14:00,
2013-02-06 05:19:00,41.9,35.6,29.96,North,-999,-999.0,-999.0,47,0.00,,,0.00,meteohub,2013-02-06 13:19:00,
2013-02-06 05:24:00,41.7,35.4,29.96,North,-999,-999.0,-999.0,47,0.00,,,0.00,meteohub,2013-02-06 13:24:00,
2013-02-06 05:29:00,41.7,35.4,29.96,North,-999,-999.0,-999.0,47,0.00,,,0.00,meteohub,2013-02-06 13:29:00,
2013-02-06 05:35:00,41.7,35.4,29.96,North,-999,-999.0,-999.0,47,0.00,,,0.00,meteohub,2013-02-06 13:35:00,
2013-02-06 05:40:00,41.9,35.6,29.96,North,-999,-999.0,-999.0,47,0.00,,,0.00,meteohub,2013-02-06 13:40:00,
2013-02-06 05:45:00,41.9,35.6,29.96,North,-999,-999.0,-999.0,47,0.00,,,0.00,meteohub,2013-02-06 13:45:00,
2013-02-06 05:50:00,41.7,35.4,29.96,North,-999,-999.0,-999.0,47,0.00,,,0.00,meteohub,2013-02-06 13:50:00,
2013-02-06 05:55:00,41.7,35.4,29.96,North,-999,-999.0,-999.0,47,0.00,,,0.00,meteohub,2013-02-06 13:55:00,
2013-02-06 06:00:00,41.5,35.2,29.96,North,-999,-999.0,-999.0,47,0.00,,,0.00,meteohub,2013-02-06 14:00:00,
2013-02-06 06:05:00,41.5,35.2,29.96,North,-999,-999.0,-999.0,47,0.00,,,0.00,meteohub,2013-02-06 14:05:00,
2013-02-06 06:10:00,41.5,35.2,29.96,North,-999,-999.0,-999.0,47,0.00,,,0.00,meteohub,2013-02-06 14:10:00,
2013-02-06 06:15:00,41.5,35.2,29.96,North,-999,-999.0,-999.0,47,0.00,,,0.00,meteohub,2013-02-06 14:15:00,
2013-02-06 06:20:00,41.5,35.2,29.96,North,-999,-999.0,-999.0,47,0.00,,,0.00,meteohub,2013-02-06 14:20:00,
2013-02-06 06:26:00,41.5,35.6,29.96,North,-999,-999.0,-999.0,47,0.00,,,0.00,meteohub,2013-02-06 14:26:00,
2013-02-06 06:31:00,41.5,35.6,29.96,North,-999,-999.0,-999.0,47,0.00,,,0.00,meteohub,2013-02-06 14:31:00,
2013-02-06 06:36:00,41.4,35.4,29.96,North,-999,-999.0,-999.0,47,0.00,,,0.00,meteohub,2013-02-06 14:36:00,
2013-02-06 06:41:00,41.4,35.4,29.96,North,-999,-999.0,-999.0,47,0.00,,,0.00,meteohub,2013-02-06 14:41:00,
2013-02-06 06:46:00,41.2,35.2,29.96,North,-999,-999.0,-999.0,47,0.00,,,0.00,meteohub,2013-02-06 14:46:00,
2013-02-06 06:51:00,41.2,35.2,29.96,North,-999,-999.0,-999.0,47,0.00,,,0.00,meteohub,2013-02-06 14:51:00,
2013-02-06 06:56:00,41.2,34.9,29.96,North,-999,-999.0,-999.0,47,0.00,,,0.00,meteohub,2013-02-06 14:56:00,
2013-02-06 07:01:00,41.2,34.9,29.96,North,-999,-999.0,-999.0,47,0.00,,,0.00,meteohub,2013-02-06 15:01:00,
2013-02-06 07:06:00,41.2,35.2,29.96,North,-999,-999.0,-999.0,47,0.00,,,0.00,meteohub,2013-02-06 15:06:00,
2013-02-06 07:11:00,41.2,35.2,29.96,North,-999,-999.0,-999.0,47,0.00,,,0.00,meteohub,2013-02-06 15:11:00,
2013-02-06 07:16:00,41.4,35.4,29.96,North,-999,-999.0,-999.0,47,0.00,,,0.00,meteohub,2013-02-06 15:16:00,
2013-02-06 07:22:00,41.5,35.8,29.96,North,-999,-999.0,-999.0,47,0.00,,,0.00,meteohub,2013-02-06 15:22:00,
2013-02-06 07:27:00,41.5,35.8,29.99,North,-999,-999.0,-999.0,47,0.00,,,0.00,meteohub,2013-02-06 15:27:00,
2013-02-06 07:32:00,41.5,35.8,29.99,North,-999,-999.0,-999.0,47,0.00,,,0.00,meteohub,2013-02-06 15:32:00,
2013-02-06 07:37:00,41.5,35.8,29.99,North,-999,-999.0,-999.0,47,0.00,,,0.00,meteohub,2013-02-06 15:37:00,
2013-02-06 07:42:00,41.5,35.8,29.99,North,-999,-999.0,-999.0,47,0.00,,,0.00,meteohub,2013-02-06 15:42:00,
2013-02-06 07:47:00,41.5,35.8,29.99,North,-999,-999.0,-999.0,47,0.00,,,0.00,meteohub,2013-02-06 15:47:00,
2013-02-06 07:52:00,41.7,36.0,29.99,North,-999,-999.0,-999.0,47,0.00,,,0.00,meteohub,2013-02-06 15:52:00,
2013-02-06 07:57:00,41.9,36.5,29.99,North,-999,-999.0,-999.0,47,0.00,,,0.00,meteohub,2013-02-06 15:57:00,
2013-02-06 08:02:00,42.3,37.2,29.99,North,-999,-999.0,-999.0,47,0.00,,,0.00,meteohub,2013-02-06 16:02:00,
2013-02-06 08:07:00,42.4,37.4,29.99,North,-999,-999.0,-999.0,47,0.00,,,0.00,meteohub,2013-02-06 16:07:00,
2013-02-06 08:12:00,42.8,37.8,29.99,North,-999,-999.0,-999.0,47,0.00,,,0.00,meteohub,2013-02-06 16:12:00,
2013-02-06 08:17:00,43.0,37.9,29.99,North,-999,-999.0,-999.0,47,0.00,,,0.00,meteohub,2013-02-06 16:17:00,
2013-02-06 08:22:00,43.2,38.1,29.99,North,-999,-999.0,-999.0,47,0.00,,,0.00,meteohub,2013-02-06 16:22:00,
2013-02-06 08:27:00,43.3,38.3,29.99,North,-999,-999.0,-999.0,47,0.00,,,0.00,meteohub,2013-02-06 16:27:00,
2013-02-06 08:32:00,43.5,38.5,29.99,North,-999,-999.0,-999.0,47,0.00,,,0.00,meteohub,2013-02-06 16:32:00,
2013-02-06 08:37:00,43.7,38.5,29.99,North,-999,-999.0,-999.0,47,0.00,,,0.00,meteohub,2013-02-06 16:37:00,
2013-02-06 08:42:00,43.9,38.7,29.99,North,-999,-999.0,-999.0,47,0.00,,,0.00,meteohub,2013-02-06 16:42:00,
2013-02-06 08:47:00,44.2,39.0,29.99,North,-999,-999.0,-999.0,47,0.00,,,0.00,meteohub,2013-02-06 16:47:00,
2013-02-06 08:52:00,44.8,39.6,29.99,North,-999,-999.0,-999.0,47,0.00,,,0.00,meteohub,2013-02-06 16:52:00,
2013-02-06 08:57:00,45.3,40.1,29.99,North,-999,-999.0,-999.0,47,0.00,,,0.00,meteohub,2013-02-06 16:57:00,
2013-02-06 09:02:00,46.0,40.8,29.99,North,-999,-999.0,-999.0,47,0.00,,,0.00,meteohub,2013-02-06 17:02:00,
2013-02-06 09:07:00,46.6,41.4,29.99,North,-999,-999.0,-999.0,47,0.00,,,0.00,meteohub,2013-02-06 17:07:00,
2013-02-06 09:12:00,46.9,41.7,29.99,North,-999,-999.0,-999.0,47,0.00,,,0.00,meteohub,2013-02-06 17:12:00,
2013-02-06 09:17:00,47.3,42.1,29.99,North,-999,-999.0,-999.0,46,0.00,,,0.00,meteohub,2013-02-06 17:17:00,
2013-02-06 09:22:00,47.8,42.6,29.99,North,-999,-999.0,-999.0,46,0.00,,,0.00,meteohub,2013-02-06 17:22:00,
2013-02-06 09:27:00,48.2,43.0,29.99,North,-999,-999.0,-999.0,46,0.00,,,0.00,meteohub,2013-02-06 17:27:00,
2013-02-06 09:32:00,48.7,43.2,29.99,North,-999,-999.0,-999.0,46,0.00,,,0.00,meteohub,2013-02-06 17:32:00,
2013-02-06 09:37:00,49.3,43.3,29.99,North,-999,-999.0,-999.0,46,0.00,,,0.00,meteohub,2013-02-06 17:37:00,
2013-02-06 09:43:00,49.8,43.0,29.99,North,-999,-999.0,-999.0,46,0.00,,,0.00,meteohub,2013-02-06 17:43:00,
2013-02-06 09:48:00,50.2,42.3,29.99,North,-999,-999.0,-999.0,46,0.00,,,0.00,meteohub,2013-02-06 17:48:00,
2013-02-06 09:53:00,50.7,42.4,29.99,North,-999,-999.0,-999.0,46,0.00,,,0.00,meteohub,2013-02-06 17:53:00,
2013-02-06 09:58:00,50.7,41.0,29.99,North,-999,-999.0,-999.0,46,0.00,,,0.00,meteohub,2013-02-06 17:58:00,
2013-02-06 10:03:00,51.4,41.2,29.99,North,-999,-999.0,-999.0,46,0.00,,,0.00,meteohub,2013-02-06 18:03:00,
2013-02-06 10:08:00,51.8,41.2,29.99,North,-999,-999.0,-999.0,46,0.00,,,0.00,meteohub,2013-02-06 18:08:00,
2013-02-06 10:13:00,52.0,35.4,29.99,North,-999,-999.0,-999.0,46,0.00,,,0.00,meteohub,2013-02-06 18:13:00,
2013-02-06 10:18:00,52.9,36.1,29.99,North,-999,-999.0,-999.0,46,0.00,,,0.00,meteohub,2013-02-06 18:18:00,
2013-02-06 10:23:00,53.1,36.9,29.99,North,-999,-999.0,-999.0,46,0.00,,,0.00,meteohub,2013-02-06 18:23:00,
2013-02-06 10:28:00,53.4,37.2,29.96,North,-999,-999.0,-999.0,46,0.00,,,0.00,meteohub,2013-02-06 18:28:00,
2013-02-06 10:33:00,53.8,37.6,29.96,North,-999,-999.0,-999.0,46,0.00,,,0.00,meteohub,2013-02-06 18:33:00,
2013-02-06 10:39:00,54.1,36.9,29.96,North,-999,-999.0,-999.0,46,0.00,,,0.00,meteohub,2013-02-06 18:39:00,
2013-02-06 10:44:00,54.5,36.7,29.99,North,-999,-999.0,-999.0,46,0.00,,,0.00,meteohub,2013-02-06 18:44:00,
2013-02-06 10:49:00,54.7,36.3,29.99,North,-999,-999.0,-999.0,46,0.00,,,0.00,meteohub,2013-02-06 18:49:00,
2013-02-06 10:54:00,55.0,36.7,29.99,North,-999,-999.0,-999.0,46,0.00,,,0.00,meteohub,2013-02-06 18:54:00,
2013-02-06 10:59:00,55.4,37.0,29.99,North,-999,-999.0,-999.0,46,0.00,,,0.00,meteohub,2013-02-06 18:59:00,
2013-02-06 11:04:00,55.8,35.8,29.99,North,-999,-999.0,-999.0,46,0.00,,,0.00,meteohub,2013-02-06 19:04:00,
2013-02-06 11:09:00,56.5,36.5,29.99,North,-999,-999.0,-999.0,45,0.00,,,0.00,meteohub,2013-02-06 19:09:00,
2013-02-06 11:14:00,56.8,36.3,29.96,North,-999,-999.0,-999.0,45,0.00,,,0.00,meteohub,2013-02-06 19:14:00,
2013-02-06 11:19:00,57.0,36.5,29.96,North,-999,-999.0,-999.0,45,0.00,,,0.00,meteohub,2013-02-06 19:19:00,
2013-02-06 11:24:00,57.4,36.7,29.96,North,-999,-999.0,-999.0,45,0.00,,,0.00,meteohub,2013-02-06 19:24:00,
2013-02-06 11:29:00,57.6,36.3,29.96,North,-999,-999.0,-999.0,45,0.00,,,0.00,meteohub,2013-02-06 19:29:00,
2013-02-06 11:35:00,57.9,36.1,29.96,North,-999,-999.0,-999.0,45,0.00,,,0.00,meteohub,2013-02-06 19:35:00,
2013-02-06 11:40:00,58.5,35.4,29.96,North,-999,-999.0,-999.0,45,0.00,,,0.00,meteohub,2013-02-06 19:40:00,
2013-02-06 11:45:00,58.8,35.8,29.96,North,-999,-999.0,-999.0,45,0.00,,,0.00,meteohub,2013-02-06 19:45:00,
2013-02-06 11:50:00,59.0,36.0,29.96,North,-999,-999.0,-999.0,45,0.00,,,0.00,meteohub,2013-02-06 19:50:00,
2013-02-06 11:55:00,59.2,35.4,29.96,North,-999,-999.0,-999.0,45,0.00,,,0.00,meteohub,2013-02-06 19:55:00,
2013-02-06 12:00:00,59.4,36.9,29.96,North,-999,-999.0,-999.0,45,0.00,,,0.00,meteohub,2013-02-06 20:00:00,
2013-02-06 12:05:00,59.7,36.5,29.96,North,-999,-999.0,-999.0,45,0.00,,,0.00,meteohub,2013-02-06 20:05:00,
2013-02-06 12:10:00,59.7,36.5,29.96,North,-999,-999.0,-999.0,45,0.00,,,0.00,meteohub,2013-02-06 20:10:00,
2013-02-06 12:15:00,59.9,36.1,29.96,North,-999,-999.0,-999.0,45,0.00,,,0.00,meteohub,2013-02-06 20:15:00,
2013-02-06 12:20:00,60.1,36.3,29.96,North,-999,-999.0,-999.0,45,0.00,,,0.00,meteohub,2013-02-06 20:20:00,
2013-02-06 12:26:00,60.3,36.5,29.96,North,-999,-999.0,-999.0,45,0.00,,,0.00,meteohub,2013-02-06 20:26:00,
2013-02-06 12:31:00,60.4,36.7,29.96,North,-999,-999.0,-999.0,45,0.00,,,0.00,meteohub,2013-02-06 20:31:00,
2013-02-06 12:36:00,60.6,36.9,29.96,North,-999,-999.0,-999.0,45,0.00,,,0.00,meteohub,2013-02-06 20:36:00,
2013-02-06 12:41:00,61.0,35.8,29.96,North,-999,-999.0,-999.0,45,0.00,,,0.00,meteohub,2013-02-06 20:41:00,
2013-02-06 12:46:00,61.0,35.8,29.96,North,-999,-999.0,-999.0,45,0.00,,,0.00,meteohub,2013-02-06 20:46:00,
2013-02-06 12:51:00,61.0,35.2,29.96,North,-999,-999.0,-999.0,45,0.00,,,0.00,meteohub,2013-02-06 20:51:00,
2013-02-06 12:56:00,61.0,35.2,29.96,North,-999,-999.0,-999.0,45,0.00,,,0.00,meteohub,2013-02-06 20:56:00,
2013-02-06 13:01:00,61.2,35.4,29.96,North,-999,-999.0,-999.0,45,0.00,,,0.00,meteohub,2013-02-06 21:01:00,
2013-02-06 13:06:00,61.2,34.7,29.96,North,-999,-999.0,-999.0,45,0.00,,,0.00,meteohub,2013-02-06 21:06:00,
2013-02-06 13:12:00,61.0,34.5,29.93,North,-999,-999.0,-999.0,45,0.00,,,0.00,meteohub,2013-02-06 21:12:00,
2013-02-06 13:17:00,61.2,35.4,29.93,North,-999,-999.0,-999.0,45,0.00,,,0.00,meteohub,2013-02-06 21:17:00,
2013-02-06 13:22:00,61.3,34.9,29.93,North,-999,-999.0,-999.0,45,0.00,,,0.00,meteohub,2013-02-06 21:22:00,
2013-02-06 13:27:00,61.5,35.1,29.93,North,-999,-999.0,-999.0,45,0.00,,,0.00,meteohub,2013-02-06 21:27:00,
2013-02-06 13:32:00,61.3,34.9,29.93,North,-999,-999.0,-999.0,45,0.00,,,0.00,meteohub,2013-02-06 21:32:00,
2013-02-06 13:37:00,61.3,34.9,29.93,North,-999,-999.0,-999.0,45,0.00,,,0.00,meteohub,2013-02-06 21:37:00,
2013-02-06 13:42:00,61.3,34.9,29.93,North,-999,-999.0,-999.0,45,0.00,,,0.00,meteohub,2013-02-06 21:42:00,
2013-02-06 13:47:00,61.3,34.9,29.93,North,-999,-999.0,-999.0,45,0.00,,,0.00,meteohub,2013-02-06 21:47:00,
2013-02-06 13:52:00,61.5,35.1,29.93,North,-999,-999.0,-999.0,45,0.00,,,0.00,meteohub,2013-02-06 21:52:00,
2013-02-06 13:57:00,61.7,35.2,29.93,North,-999,-999.0,-999.0,45,0.00,,,0.00,meteohub,2013-02-06 21:57:00,
2013-02-06 14:02:00,61.7,35.2,29.93,North,-999,-999.0,-999.0,45,0.00,,,0.00,meteohub,2013-02-06 22:02:00,
2013-02-06 14:07:00,61.7,35.8,29.93,North,-999,-999.0,-999.0,45,0.00,,,0.00,meteohub,2013-02-06 22:07:00,
2013-02-06 14:12:00,61.9,36.0,29.93,North,-999,-999.0,-999.0,45,0.00,,,0.00,meteohub,2013-02-06 22:12:00,
2013-02-06 14:17:00,62.1,35.4,29.93,North,-999,-999.0,-999.0,45,0.00,,,0.00,meteohub,2013-02-06 22:17:00,
2013-02-06 14:22:00,62.1,36.1,29.93,North,-999,-999.0,-999.0,45,0.00,,,0.00,meteohub,2013-02-06 22:22:00,
2013-02-06 14:27:00,62.2,36.3,29.93,North,-999,-999.0,-999.0,45,0.00,,,0.00,meteohub,2013-02-06 22:27:00,
2013-02-06 14:33:00,62.4,35.8,29.93,North,-999,-999.0,-999.0,45,0.00,,,0.00,meteohub,2013-02-06 22:33:00,
2013-02-06 14:38:00,62.2,35.6,29.93,North,-999,-999.0,-999.0,45,0.00,,,0.00,meteohub,2013-02-06 22:38:00,
2013-02-06 14:43:00,62.2,35.6,29.90,North,-999,-999.0,-999.0,45,0.00,,,0.00,meteohub,2013-02-06 22:43:00,
2013-02-06 14:48:00,62.2,35.6,29.90,North,-999,-999.0,-999.0,45,0.00,,,0.00,meteohub,2013-02-06 22:48:00,
2013-02-06 14:53:00,62.1,36.1,29.90,North,-999,-999.0,-999.0,45,0.00,,,0.00,meteohub,2013-02-06 22:53:00,
2013-02-06 14:58:00,61.9,36.0,29.93,North,-999,-999.0,-999.0,45,0.00,,,0.00,meteohub,2013-02-06 22:58:00,
2013-02-06 15:03:00,61.9,36.0,29.93,North,-999,-999.0,-999.0,45,0.00,,,0.00,meteohub,2013-02-06 23:03:00,
2013-02-06 15:08:00,61.7,35.8,29.93,North,-999,-999.0,-999.0,45,0.00,,,0.00,meteohub,2013-02-06 23:08:00,
2013-02-06 15:13:00,61.5,36.3,29.93,North,-999,-999.0,-999.0,45,0.00,,,0.00,meteohub,2013-02-06 23:13:00,
2013-02-06 15:18:00,61.3,36.1,29.93,North,-999,-999.0,-999.0,45,0.00,,,0.00,meteohub,2013-02-06 23:18:00,
2013-02-06 15:23:00,61.2,36.0,29.93,North,-999,-999.0,-999.0,45,0.00,,,0.00,meteohub,2013-02-06 23:23:00,
2013-02-06 15:29:00,61.0,35.8,29.93,North,-999,-999.0,-999.0,45,0.00,,,0.00,meteohub,2013-02-06 23:29:00,
2013-02-06 15:34:00,60.8,36.3,29.93,North,-999,-999.0,-999.0,45,0.00,,,0.00,meteohub,2013-02-06 23:34:00,
2013-02-06 15:39:00,60.6,36.1,29.93,North,-999,-999.0,-999.0,45,0.00,,,0.00,meteohub,2013-02-06 23:39:00,
2013-02-06 15:44:00,60.4,36.0,29.93,North,-999,-999.0,-999.0,45,0.00,,,0.00,meteohub,2013-02-06 23:44:00,
2013-02-06 15:49:00,60.3,36.5,29.93,North,-999,-999.0,-999.0,45,0.00,,,0.00,meteohub,2013-02-06 23:49:00,
2013-02-06 15:54:00,60.1,36.3,29.93,North,-999,-999.0,-999.0,45,0.00,,,0.00,meteohub,2013-02-06 23:54:00,
2013-02-06 15:59:00,60.1,36.9,29.93,North,-999,-999.0,-999.0,45,0.00,,,0.00,meteohub,2013-02-06 23:59:00,
2013-02-06 16:04:00,60.1,36.9,29.93,North,-999,-999.0,-999.0,45,0.00,,,0.00,meteohub,2013-02-07 00:04:00,
2013-02-06 16:09:00,59.7,36.5,29.93,North,-999,-999.0,-999.0,45,0.00,,,0.00,meteohub,2013-02-07 00:09:00,
2013-02-06 16:14:00,59.5,36.5,29.93,North,-999,-999.0,-999.0,45,0.00,,,0.00,meteohub,2013-02-07 00:14:00,
2013-02-06 16:20:00,59.4,36.3,29.93,North,-999,-999.0,-999.0,45,0.00,,,0.00,meteohub,2013-02-07 00:20:00,
2013-02-06 16:25:00,59.2,36.1,29.93,North,-999,-999.0,-999.0,45,0.00,,,0.00,meteohub,2013-02-07 00:25:00,
2013-02-06 16:30:00,59.0,36.0,29.93,North,-999,-999.0,-999.0,45,0.00,,,0.00,meteohub,2013-02-07 00:30:00,
2013-02-06 16:35:00,58.8,36.3,29.93,North,-999,-999.0,-999.0,45,0.00,,,0.00,meteohub,2013-02-07 00:35:00,
2013-02-06 16:40:00,58.6,36.1,29.93,North,-999,-999.0,-999.0,45,0.00,,,0.00,meteohub,2013-02-07 00:40:00,
2013-02-06 16:45:00,58.5,36.0,29.93,North,-999,-999.0,-999.0,45,0.00,,,0.00,meteohub,2013-02-07 00:45:00,
2013-02-06 16:50:00,58.5,35.4,29.93,North,-999,-999.0,-999.0,45,0.00,,,0.00,meteohub,2013-02-07 00:50:00,
2013-02-06 16:55:00,58.3,36.0,29.93,North,-999,-999.0,-999.0,45,0.00,,,0.00,meteohub,2013-02-07 00:55:00,
2013-02-06 17:00:00,57.9,34.9,29.93,North,-999,-999.0,-999.0,45,0.00,,,0.00,meteohub,2013-02-07 01:00:00,
2013-02-06 17:06:00,57.7,34.9,29.93,North,-999,-999.0,-999.0,46,0.00,,,0.00,meteohub,2013-02-07 01:06:00,
2013-02-06 17:11:00,57.4,34.5,29.93,North,-999,-999.0,-999.0,46,0.00,,,0.00,meteohub,2013-02-07 01:11:00,
2013-02-06 17:16:00,57.2,34.3,29.93,North,-999,-999.0,-999.0,46,0.00,,,0.00,meteohub,2013-02-07 01:16:00,
2013-02-06 17:21:00,56.8,34.0,29.93,North,-999,-999.0,-999.0,46,0.00,,,0.00,meteohub,2013-02-07 01:21:00,
2013-02-06 17:26:00,56.7,33.8,29.93,North,-999,-999.0,-999.0,46,0.00,,,0.00,meteohub,2013-02-07 01:26:00,
2013-02-06 17:31:00,56.5,34.3,29.93,North,-999,-999.0,-999.0,46,0.00,,,0.00,meteohub,2013-02-07 01:31:00,
2013-02-06 17:36:00,56.3,34.2,29.93,North,-999,-999.0,-999.0,46,0.00,,,0.00,meteohub,2013-02-07 01:36:00,
2013-02-06 17:41:00,55.9,34.3,29.93,North,-999,-999.0,-999.0,46,0.00,,,0.00,meteohub,2013-02-07 01:41:00,
2013-02-06 17:46:00,55.6,34.5,29.93,North,-999,-999.0,-999.0,46,0.00,,,0.00,meteohub,2013-02-07 01:46:00,
2013-02-06 17:51:00,55.4,34.3,29.93,North,-999,-999.0,-999.0,46,0.00,,,0.00,meteohub,2013-02-07 01:51:00,
2013-02-06 17:57:00,55.0,34.7,29.93,North,-999,-999.0,-999.0,46,0.00,,,0.00,meteohub,2013-02-07 01:57:00,
2013-02-06 18:02:00,54.9,34.5,29.93,North,-999,-999.0,-999.0,46,0.00,,,0.00,meteohub,2013-02-07 02:02:00,
2013-02-06 18:07:00,54.5,34.7,29.93,North,-999,-999.0,-999.0,46,0.00,,,0.00,meteohub,2013-02-07 02:07:00,
2013-02-06 18:12:00,54.3,34.5,29.93,North,-999,-999.0,-999.0,46,0.00,,,0.00,meteohub,2013-02-07 02:12:00,
2013-02-06 18:17:00,54.0,34.2,29.93,North,-999,-999.0,-999.0,46,0.00,,,0.00,meteohub,2013-02-07 02:17:00,
2013-02-06 18:22:00,53.6,33.8,29.93,North,-999,-999.0,-999.0,46,0.00,,,0.00,meteohub,2013-02-07 02:22:00,
2013-02-06 18:27:00,53.2,34.0,29.93,North,-999,-999.0,-999.0,46,0.00,,,0.00,meteohub,2013-02-07 02:27:00,
2013-02-06 18:32:00,53.1,34.3,29.93,North,-999,-999.0,-999.0,46,0.00,,,0.00,meteohub,2013-02-07 02:32:00,
2013-02-06 18:37:00,52.7,34.5,29.93,North,-999,-999.0,-999.0,46,0.00,,,0.00,meteohub,2013-02-07 02:37:00,
2013-02-06 18:42:00,52.5,34.3,29.96,North,-999,-999.0,-999.0,46,0.00,,,0.00,meteohub,2013-02-07 02:42:00,
2013-02-06 18:47:00,52.3,34.2,29.96,North,-999,-999.0,-999.0,46,0.00,,,0.00,meteohub,2013-02-07 02:47:00,
2013-02-06 18:52:00,52.0,34.3,29.96,North,-999,-999.0,-999.0,46,0.00,,,0.00,meteohub,2013-02-07 02:52:00,
2013-02-06 18:57:00,51.6,34.5,29.96,North,-999,-999.0,-999.0,46,0.00,,,0.00,meteohub,2013-02-07 02:57:00,
2013-02-06 19:02:00,51.3,34.7,29.96,North,-999,-999.0,-999.0,46,0.00,,,0.00,meteohub,2013-02-07 03:02:00,
2013-02-06 19:07:00,50.9,34.3,29.96,North,-999,-999.0,-999.0,46,0.00,,,0.00,meteohub,2013-02-07 03:07:00,
2013-02-06 19:12:00,50.7,34.7,29.96,North,-999,-999.0,-999.0,46,0.00,,,0.00,meteohub,2013-02-07 03:12:00,
2013-02-06 19:17:00,50.4,34.9,29.96,North,-999,-999.0,-999.0,46,0.00,,,0.00,meteohub,2013-02-07 03:17:00,
2013-02-06 19:22:00,50.2,34.7,29.96,North,-999,-999.0,-999.0,46,0.00,,,0.00,meteohub,2013-02-07 03:22:00,
2013-02-06 19:27:00,50.0,34.5,29.96,North,-999,-999.0,-999.0,46,0.00,,,0.00,meteohub,2013-02-07 03:27:00,
2013-02-06 19:32:00,49.6,34.5,29.96,North,-999,-999.0,-999.0,46,0.00,,,0.00,meteohub,2013-02-07 03:32:00,
2013-02-06 19:37:00,49.3,34.2,29.96,North,-999,-999.0,-999.0,46,0.00,,,0.00,meteohub,2013-02-07 03:37:00,
2013-02-06 19:42:00,49.1,34.9,29.96,North,-999,-999.0,-999.0,46,0.00,,,0.00,meteohub,2013-02-07 03:42:00,
2013-02-06 19:47:00,48.9,34.9,29.96,North,-999,-999.0,-999.0,46,0.00,,,0.00,meteohub,2013-02-07 03:47:00,
2013-02-06 19:52:00,48.7,34.7,29.96,North,-999,-999.0,-999.0,46,0.00,,,0.00,meteohub,2013-02-07 03:52:00,
2013-02-06 19:57:00,48.7,34.7,29.96,North,-999,-999.0,-999.0,46,0.00,,,0.00,meteohub,2013-02-07 03:57:00,
2013-02-06 20:02:00,48.4,34.3,29.96,North,-999,-999.0,-999.0,46,0.00,,,0.00,meteohub,2013-02-07 04:02:00,
2013-02-06 20:07:00,48.2,34.5,29.96,North,-999,-999.0,-999.0,46,0.00,,,0.00,meteohub,2013-02-07 04:07:00,
2013-02-06 20:12:00,48.0,34.9,29.96,North,-999,-999.0,-999.0,46,0.00,,,0.00,meteohub,2013-02-07 04:12:00,
2013-02-06 20:17:00,47.8,34.7,29.96,North,-999,-999.0,-999.0,46,0.00,,,0.00,meteohub,2013-02-07 04:17:00,
2013-02-06 20:22:00,47.5,34.7,29.96,North,-999,-999.0,-999.0,46,0.00,,,0.00,meteohub,2013-02-07 04:22:00,
2013-02-06 20:27:00,47.5,34.7,29.96,North,-999,-999.0,-999.0,46,0.00,,,0.00,meteohub,2013-02-07 04:27:00,
2013-02-06 20:32:00,47.3,34.5,29.96,North,-999,-999.0,-999.0,46,0.00,,,0.00,meteohub,2013-02-07 04:32:00,
2013-02-06 20:37:00,47.3,34.5,29.96,North,-999,-999.0,-999.0,46,0.00,,,0.00,meteohub,2013-02-07 04:37:00,
2013-02-06 20:42:00,47.1,34.0,29.96,North,-999,-999.0,-999.0,46,0.00,,,0.00,meteohub,2013-02-07 04:42:00,
2013-02-06 20:47:00,46.9,33.8,29.96,North,-999,-999.0,-999.0,46,0.00,,,0.00,meteohub,2013-02-07 04:47:00,
2013-02-06 20:52:00,46.6,33.8,29.96,North,-999,-999.0,-999.0,46,0.00,,,0.00,meteohub,2013-02-07 04:52:00,
2013-02-06 20:57:00,46.6,33.8,29.99,North,-999,-999.0,-999.0,46,0.00,,,0.00,meteohub,2013-02-07 04:57:00,
2013-02-06 21:00:00,46.6,33.8,29.99,North,-999,-999.0,-999.0,46,0.00,,,0.00,meteohub,2013-02-07 05:00:00,
2013-02-06 21:01:00,46.6,33.8,29.99,North,-999,-999.0,-999.0,46,0.00,,,0.00,meteohub,2013-02-07 05:01:00,
2013-02-06 21:02:00,46.6,33.8,29.99,North,-999,-999.0,-999.0,46,0.00,,,0.00,meteohub,2013-02-07 05:02:00,
2013-02-06 21:07:00,46.4,33.6,29.99,North,-999,-999.0,-999.0,47,0.00,,,0.00,meteohub,2013-02-07 05:07:00,
2013-02-06 21:12:00,46.2,34.0,29.99,North,-999,-999.0,-999.0,47,0.00,,,0.00,meteohub,2013-02-07 05:12:00,
2013-02-06 21:17:00,46.0,33.8,29.99,North,-999,-999.0,-999.0,47,0.00,,,0.00,meteohub,2013-02-07 05:17:00,
2013-02-06 21:22:00,45.9,33.6,29.99,North,-999,-999.0,-999.0,47,0.00,,,0.00,meteohub,2013-02-07 05:22:00,
2013-02-06 21:27:00,45.5,33.6,29.99,North,-999,-999.0,-999.0,47,0.00,,,0.00,meteohub,2013-02-07 05:27:00,
2013-02-06 21:32:00,45.3,33.4,29.99,North,-999,-999.0,-999.0,47,0.00,,,0.00,meteohub,2013-02-07 05:32:00,
2013-02-06 21:37:00,45.3,33.4,29.99,North,-999,-999.0,-999.0,47,0.00,,,0.00,meteohub,2013-02-07 05:37:00,
2013-02-06 21:42:00,45.1,33.6,29.99,North,-999,-999.0,-999.0,46,0.00,,,0.00,meteohub,2013-02-07 05:42:00,
2013-02-06 21:47:00,45.1,33.6,29.99,North,-999,-999.0,-999.0,47,0.00,,,0.00,meteohub,2013-02-07 05:47:00,
2013-02-06 21:53:00,45.1,33.6,29.99,North,-999,-999.0,-999.0,47,0.00,,,0.00,meteohub,2013-02-07 05:53:00,
2013-02-06 21:58:00,45.0,33.4,29.99,North,-999,-999.0,-999.0,47,0.00,,,0.00,meteohub,2013-02-07 05:58:00,
2013-02-06 22:03:00,45.0,33.4,29.99,North,-999,-999.0,-999.0,47,0.00,,,0.00,meteohub,2013-02-07 06:03:00,
2013-02-06 22:08:00,44.8,32.9,29.99,North,-999,-999.0,-999.0,47,0.00,,,0.00,meteohub,2013-02-07 06:08:00,
2013-02-06 22:13:00,44.8,32.9,29.99,North,-999,-999.0,-999.0,47,0.00,,,0.00,meteohub,2013-02-07 06:13:00,
2013-02-06 22:18:00,44.6,32.7,29.99,North,-999,-999.0,-999.0,47,0.00,,,0.00,meteohub,2013-02-07 06:18:00,
2013-02-06 22:23:00,44.4,33.1,29.99,North,-999,-999.0,-999.0,47,0.00,,,0.00,meteohub,2013-02-07 06:23:00,
2013-02-06 22:28:00,44.2,32.9,29.99,North,-999,-999.0,-999.0,47,0.00,,,0.00,meteohub,2013-02-07 06:28:00,
2013-02-06 22:33:00,44.2,32.9,29.99,North,-999,-999.0,-999.0,46,0.00,,,0.00,meteohub,2013-02-07 06:33:00,
2013-02-06 22:38:00,44.2,32.9,29.99,North,-999,-999.0,-999.0,46,0.00,,,0.00,meteohub,2013-02-07 06:38:00,
2013-02-06 22:44:00,44.1,32.7,29.99,North,-999,-999.0,-999.0,46,0.00,,,0.00,meteohub,2013-02-07 06:44:00,
2013-02-06 22:49:00,43.9,32.9,29.99,North,-999,-999.0,-999.0,46,0.00,,,0.00,meteohub,2013-02-07 06:49:00,
2013-02-06 22:54:00,43.9,32.9,29.99,North,-999,-999.0,-999.0,46,0.00,,,0.00,meteohub,2013-02-07 06:54:00,
2013-02-06 22:59:00,43.9,32.9,29.99,North,-999,-999.0,-999.0,46,0.00,,,0.00,meteohub,2013-02-07 06:59:00,
2013-02-06 23:04:00,43.9,32.9,29.99,North,-999,-999.0,-999.0,46,0.00,,,0.00,meteohub,2013-02-07 07:04:00,
2013-02-06 23:09:00,43.9,32.9,29.99,North,-999,-999.0,-999.0,46,0.00,,,0.00,meteohub,2013-02-07 07:09:00,
2013-02-06 23:14:00,43.7,32.7,29.99,North,-999,-999.0,-999.0,46,0.00,,,0.00,meteohub,2013-02-07 07:14:00,
2013-02-06 23:19:00,43.7,32.7,29.99,North,-999,-999.0,-999.0,46,0.00,,,0.00,meteohub,2013-02-07 07:19:00,
2013-02-06 23:25:00,43.7,33.1,29.99,North,-999,-999.0,-999.0,47,0.00,,,0.00,meteohub,2013-02-07 07:25:00,
2013-02-06 23:30:00,43.5,32.9,29.99,North,-999,-999.0,-999.0,47,0.00,,,0.00,meteohub,2013-02-07 07:30:00,
2013-02-06 23:35:00,43.5,32.9,29.99,North,-999,-999.0,-999.0,46,0.00,,,0.00,meteohub,2013-02-07 07:35:00,
2013-02-06 23:40:00,43.7,33.4,29.99,North,-999,-999.0,-999.0,46,0.00,,,0.00,meteohub,2013-02-07 07:40:00,
2013-02-06 23:45:00,43.7,33.4,29.99,North,-999,-999.0,-999.0,46,0.00,,,0.00,meteohub,2013-02-07 07:45:00,
2013-02-06 23:50:00,43.5,33.3,29.99,North,-999,-999.0,-999.0,46,0.00,,,0.00,meteohub,2013-02-07 07:50:00,
2013-02-06 23:55:00,43.5,33.3,29.99,North,-999,-999.0,-999.0,46,0.00,,,0.00,meteohub,2013-02-07 07:55:00,